Regional Weather Roundup
Issued by NWS Albany, NY

Home | Current Version | Previous Version | Text Only | Print | Product List | Glossary On
Versions: 1 2 3 4 5 6 7 8 9 10 11 12 13 14 15 16 17 18 19 20 21 22 23 24 25 26 27 28 29 30 31 32 33 34 35 36 37 38 39 40 41 42 43 44 45 46 47 48 49 50
703
ASUS41 KALY 240010
RWRALY

NEW YORK STATE HOURLY WEATHER ROUNDUP
NATIONAL WEATHER SERVICE ALBANY NY
800 PM EDT SUN JUL 23 2017

NOTE: "FAIR" INDICATES FEW OR NO CLOUDS BELOW 12,000 FEET WITH NO
SIGNIFICANT WEATHER AND/OR NO OBSTRUCTIONS TO VISIBILITY.

NYZ032-033-038>043-046>054-057>066-NYZ062>081-082-084-240100-
EAST


CITY           SKY/WX    TMP DP  RH WIND       PRES   REMARKS
ALBANY         CLOUDY    76  63  64 CALM      29.82S
GLENS FALLS    MOCLDY    72  59  63 NE5       29.84R
POUGHKEEPSIE   CLOUDY    74  65  73 SE7       29.83R
NEWBURGH       CLOUDY    75  72  88 E9        29.86R
MONTGOMERY     CLOUDY    74  69  85 SE3       29.83S
WHITE PLAINS   MOCLDY    73  64  73 E5        29.86R
ISLIP          CLOUDY    72  67  84 E8        29.85S
NEW YORK CITY  CLOUDY    78  67  68 SE12      29.84R
CENTRAL PARK   MOCLDY    75  67  76 VRB3      29.87R
$$

NYZ005>009-017-018-044>046-055-056-240100-
CENTRAL


CITY           SKY/WX    TMP DP  RH WIND       PRES   REMARKS
FULTON         CLOUDY    74  64  71 VRB3      29.76S
SYRACUSE       CLOUDY    72  66  81 E8        29.75S
ROME           CLOUDY    73  64  73 E9        29.80R
ELMIRA         CLOUDY    73  65  75 NE13      29.77R
BINGHAMTON     CLOUDY    71  64  78 SE12      29.81S
$$

NYZ026>034-041>043-087-240100-
NORTH


CITY           SKY/WX    TMP DP  RH WIND       PRES   REMARKS
WATERTOWN      CLOUDY    71  59  65 NE13      29.79S
FORT DRUM      NOT AVBL
OGDENSBURG     FAIR      69  53  57 NE7       29.84F
MASSENA        CLOUDY    70  51  51 NE8       29.87R
SARANAC LAKE   CLOUDY    65  53  65 NE12      29.88S
PLATTSBURGH    CLEAR     71  50  47 N9        29.87S
$$

NYZ001>004-010>016-019>021-085-240100-
WEST


CITY           SKY/WX    TMP DP  RH WIND       PRES   REMARKS
NIAGARA FALLS  CLOUDY    75  68  78 E10       29.72F
BUFFALO        LGT RAIN  73  71  93 NE7       29.73S
DUNKIRK        CLOUDY    76  67  73 VRB3      29.73F
JAMESTOWN      CLOUDY    73  64  73 N6        29.77F
WELLSVILLE     CLOUDY    73  68  84 MISG      29.80F
ROCHESTER      CLOUDY    75  68  78 E12       29.75S
PENN YAN       CLOUDY    69  66  90 CALM      29.76F
$$

             KEY
       WCI = WIND CHILL INDEX
       VSB = VISIBILITY
       HX  = HEAT INDEX
$$




USA.gov is the U.S. government's official web portal to all federal, state and local government web resources and services.